[[{"header":{"parameterUnit":"m.s-1","parameterCategory":1,"la1":30.2991,"la2":30.254,"lo1":-89.0895,"lo2":-89.0444,"dy":0.0017,"dx":0.0017,"nx":28,"ny":28,"refTime":"2025-05-16T21:00:00:Z","depth":0,"parameterNumber":2,"parameterNumberName":"U-component_of_WINDS"},"data":[0,0,0,0,0,0,0,0,0,0,0,0,0,0,0,0,0,0,0,0,0,0,0,0,0,0,0,0,0,0,0,0,0,0,0,0,0,0,0,0,0,0,0,0,0,0,0,0,0,0,0,0,0,0,0,0,0,0,1.877,1.8771,0,1.8875,1.8876,1.8877,1.8875,1.8873,1.8872,1.887,1.8979,1.8983,1.8987,0,0,0,0,0,0,0,0,0,0,0,0,0,1.8566,1.857,1.8769,1.8771,1.8772,1.8874,1.8876,1.8877,1.8875,1.8873,1.8871,1.887,1.8977,1.8982,1.8987,0,0,0,0,0,0,0,0,0,0,0,0,0,1.8661,1.8571,1.8769,1.8783,1.8785,1.8874,1.8876,1.8878,1.8875,1.8873,1.8871,1.8869,1.8976,1.8982,1.8988,1.907,0,0,1.9007,1.901,0,0,0,0,0,0,0,0,1.8656,1.8669,1.878,1.8782,1.8785,1.8859,1.8844,1.8942,1.8876,1.8841,1.887,1.8868,1.8941,1.895,1.8974,1.9075,1.9079,1.9008,1.9012,1.9014,1.9016,0,0,0,0,0,0,0,1.8649,1.8664,1.8811,1.8781,1.8785,1.8784,1.8795,1.8862,1.8902,1.8844,1.8844,1.8857,1.8942,1.8968,1.8977,1.9081,1.9008,1.9013,1.9017,1.902,1.9252,1.9254,0,0,0,0,0,0,1.864,1.8659,1.8808,1.8814,1.8714,1.8789,1.8802,1.8838,1.8901,1.8909,1.8858,1.8856,1.8958,1.8969,1.8981,1.9079,1.9014,1.902,1.9024,1.925,1.9253,1.9255,0,0,0,0,0,0,1.8635,1.8653,1.8803,1.8737,1.8756,1.8795,1.8835,1.8841,1.8867,1.8912,1.8919,1.8878,1.8957,1.8972,1.9047,1.9083,1.9023,1.9029,1.9247,1.9251,1.9254,1.9277,0,0,0,0,0,0,1.863,1.8652,1.8683,1.8737,1.8759,1.8868,1.8838,1.8844,1.8878,1.8876,1.8932,1.8939,1.8957,1.9038,1.9053,1.909,1.9034,1.9244,1.9249,1.9253,1.9274,1.9281,1.9288,0,0,0,0,0,1.8622,1.8686,1.8685,1.8703,1.88,1.8871,1.8883,1.8901,1.8881,1.8913,1.8941,1.8938,1.9077,1.9045,1.9063,1.9103,1.9242,1.9247,1.9253,1.927,1.928,1.9288,0,0,0,0,0,0,1.8636,1.8693,1.8693,1.8776,1.8818,1.887,1.8911,1.8911,1.896,1.8957,1.8978,1.899,1.9065,1.9092,1.9056,1.9184,1.9157,1.9166,1.9164,1.9173,1.918,1.9172,1.9039,0,0,0,0,0,1.8648,1.8701,1.8749,1.8817,1.8839,1.8871,1.8903,1.8913,1.8958,1.8976,1.901,1.9054,1.9107,1.9142,1.9194,1.9278,1.9289,1.9313,1.932,1.9326,1.9333,1.9378,1.9389,1.9273,1.9273,1.9273,0,0,1.8675,1.8713,1.8745,1.8821,1.8855,1.8909,1.8886,1.8945,1.8984,1.8985,1.9058,1.9084,1.9134,1.9214,1.9251,1.9238,1.9368,1.9333,1.9337,1.9342,1.9385,1.9396,1.9406,1.9277,1.9276,1.9275,0,0,1.875,1.8785,1.8845,1.888,1.8931,1.8952,1.8967,1.9018,1.9036,1.9109,1.911,1.9158,1.925,1.9285,1.9315,1.9402,1.94,1.9419,1.9456,1.9499,1.9508,1.9517,1.9547,1.9557,1.9426,1.9426,1.9426,0,1.8777,1.8858,1.8876,1.8934,1.8967,1.897,1.903,1.9063,1.9129,1.9151,1.9136,1.9251,1.9285,1.9372,1.9393,1.9418,1.9434,1.9412,1.9506,1.9514,1.9522,1.9551,1.9562,1.9428,1.9428,1.9428,1.9428,0,1.8887,1.8943,1.8986,1.9048,1.9086,1.9146,1.9172,1.9208,1.9215,1.9238,1.9312,1.9353,1.9412,1.9433,1.9441,1.9521,1.9512,1.9501,1.9474,1.9535,1.9562,1.9573,1.9431,1.943,1.9429,1.9429,0,0,1.8974,1.9045,1.9061,1.9088,1.9145,1.9189,1.9248,1.9305,1.9335,1.938,1.943,1.9507,1.9497,1.9531,1.9542,1.9581,1.9645,1.9565,1.9567,1.9577,1.9735,1.9741,1.9754,1.9645,1.9647,1.9649,1.973,0,1.9054,1.9159,1.9176,1.9267,1.9319,1.9321,1.9373,1.9413,1.9435,1.9482,1.9507,1.956,1.9544,1.9564,1.9602,1.963,1.9677,1.9624,1.969,1.9692,1.9676,1.9768,1.9776,1.985,1.9741,1.9743,1.9744,0,1.9162,1.9209,1.9305,1.9354,1.9376,1.9421,1.9475,1.952,1.9565,1.9578,1.9616,1.9623,1.9683,1.9653,1.9737,1.97,1.9728,1.9746,1.9749,1.9755,1.9721,1.9775,1.9875,1.9885,1.9761,1.976,1.9759,0,1.9214,1.9301,1.937,1.9394,1.9453,1.9484,1.951,1.9553,1.9586,1.9633,1.9654,1.9708,1.9737,1.9778,1.9799,1.9775,1.988,1.9852,1.9892,1.9891,1.9913,1.9911,2.0017,1.9933,1.9933,1.9933,1.9933,0,1.9301,1.9359,1.9393,1.9435,1.95,1.952,1.9584,1.9609,1.9647,1.9694,1.97,1.9744,1.9769,1.9816,1.9833,1.9898,1.9912,1.9924,1.9927,1.9923,1.9921,1.9941,1.9935,1.9936,1.9935,1.9935,1.9934,0,1.9369,1.9395,1.9469,1.9518,1.9532,1.9578,1.9619,1.966,1.9682,1.9741,1.9756,1.979,1.9846,1.9871,1.994,1.9951,2.0025,2.0026,2.001,2.001,2.0048,2.0044,2.0169,2.0186,2.0092,2.0093,2.0094,0,1.9422,1.9467,1.9521,1.9552,1.9579,1.9629,1.9663,1.9684,1.9718,1.9772,1.9806,1.9862,1.9907,1.9996,2.0027,2.0079,2.008,2.0121,2.0088,2.0082,2.0079,2.0076,2.008,2.0126,2.0127,2.0128,2.0129,0,1.9514,1.9524,1.9572,1.9624,1.9663,1.9705,1.9746,1.9772,1.9799,1.9838,1.9894,1.9929,1.9999,2.0054,2.0108,2.0135,2.0136,2.0139,2.015,2.0145,2.0133,2.0139,2.0024,2.0136,2.0135,2.0134,2.0134,2.0134,1.9575,1.9614,1.9658,1.971,1.9744,1.9782,1.9822,1.9848,1.9896,1.9954,1.9964,2.0023,2.0067,2.0139,2.0168,2.0215,2.0205,2.0222,2.0226,2.023,2.0231,2.0127,2.0225,2.0225,2.0224,2.0224,2.0224,0,1.9665,1.9693,1.9741,1.9798,1.984,1.9837,1.9883,1.9917,1.997,2.001,2.0054,2.0118,2.0171,2.0206,2.026,2.029,2.0292,2.0303,2.0301,2.0307,2.0238,2.0221,2.0301,2.0301,2.0301,2.0301,2.0301,2.0301,1.9717,1.9782,1.9798,1.988,1.9907,1.9966,1.9991,2.0026,2.0058,2.013,2.0173,2.0196,2.0233,2.0289,2.0338,2.0346,2.0365,2.0377,2.0385,2.032,2.0312,2.0304,2.0289,2.0381,2.0381,2.045,2.045,2.0451]},{"header":{"parameterUnit":"m.s-1","parameterCategory":1,"la1":30.2991,"la2":30.254,"lo1":-89.0895,"lo2":-89.0444,"dy":0.0017,"dx":0.0017,"nx":28,"ny":28,"refTime":"2025-05-16T21:00:00:Z","depth":0,"parameterNumber":3,"parameterNumberName":"V-component_of_WINDS"},"data":[0,0,0,0,0,0,0,0,0,0,0,0,0,0,0,0,0,0,0,0,0,0,0,0,0,0,0,0,0,0,0,0,0,0,0,0,0,0,0,0,0,0,0,0,0,0,0,0,0,0,0,0,0,0,0,0,0,0,3.3738,3.3738,0,3.3778,3.3779,3.3779,3.3736,3.3734,3.3732,3.3731,3.3769,3.3772,3.3774,0,0,0,0,0,0,0,0,0,0,0,0,0,3.3619,3.3621,3.3737,3.3738,3.3739,3.3778,3.3779,3.3779,3.3736,3.3734,3.3732,3.373,3.3768,3.3771,3.3775,0,0,0,0,0,0,0,0,0,0,0,0,0,3.3666,3.3622,3.3737,3.3722,3.3721,3.3778,3.3779,3.3779,3.3736,3.3734,3.3731,3.3729,3.3767,3.3771,3.3775,3.3849,0,0,3.3787,3.3788,0,0,0,0,0,0,0,0,3.3663,3.367,3.3724,3.3723,3.3722,3.3749,3.3751,3.3802,3.3737,3.373,3.3731,3.3728,3.3764,3.3768,3.3781,3.385,3.3852,3.3787,3.3789,3.3791,3.3792,0,0,0,0,0,0,0,3.366,3.3668,3.3753,3.3724,3.3723,3.3712,3.3715,3.376,3.3761,3.3731,3.3728,3.3733,3.3763,3.3778,3.3782,3.3853,3.3787,3.379,3.3793,3.3794,3.3983,3.3986,0,0,0,0,0,0,3.3659,3.3666,3.3752,3.3755,3.3686,3.3716,3.372,3.3743,3.376,3.376,3.3735,3.3731,3.3772,3.3777,3.3783,3.387,3.3791,3.3795,3.3797,3.398,3.3984,3.3987,0,0,0,0,0,0,3.3657,3.3667,3.3751,3.371,3.3719,3.372,3.3746,3.3745,3.3759,3.3764,3.3763,3.375,3.3771,3.3778,3.3833,3.3871,3.3796,3.38,3.3977,3.3981,3.3985,3.4045,0,0,0,0,0,0,3.3653,3.3667,3.3696,3.3711,3.3722,3.3801,3.3749,3.3748,3.3767,3.3761,3.3777,3.3778,3.3769,3.3827,3.3837,3.3875,3.3803,3.3974,3.3979,3.3984,3.404,3.4051,3.406,0,0,0,0,0,3.3649,3.371,3.3697,3.3708,3.3758,3.3803,3.3809,3.3799,3.377,3.3798,3.3801,3.3777,3.3865,3.3833,3.3843,3.3883,3.3971,3.3978,3.3983,3.4035,3.4048,3.406,0,0,0,0,0,0,3.3698,3.3712,3.3698,3.3765,3.3784,3.3796,3.3831,3.3814,3.384,3.3834,3.3819,3.3823,3.3881,3.3888,3.3852,3.3955,3.3913,3.3922,3.3949,3.3962,3.3972,3.3969,3.3806,0,0,0,0,0,3.3717,3.3754,3.3763,3.3822,3.3832,3.383,3.3849,3.384,3.3858,3.3865,3.3872,3.3889,3.392,3.3941,3.397,3.404,3.4043,3.4073,3.4083,3.4091,3.4098,3.4135,3.4148,3.4007,3.4006,3.4006,0,0,3.3756,3.3768,3.3792,3.3832,3.3845,3.3882,3.3837,3.3878,3.3905,3.3871,3.3924,3.3929,3.3947,3.401,3.4038,3.4017,3.4138,3.4099,3.4105,3.4108,3.4143,3.4156,3.4168,3.4011,3.401,3.4009,0,0,3.3847,3.386,3.391,3.3924,3.3945,3.3943,3.3955,3.397,3.3973,3.4025,3.4,3.4031,3.4086,3.41,3.4114,3.4209,3.4188,3.4219,3.4272,3.4308,3.4319,3.4329,3.4363,3.4375,3.4226,3.4226,3.4227,0,3.3892,3.3949,3.3938,3.3981,3.3999,3.397,3.4021,3.4034,3.4063,3.4075,3.4052,3.412,3.413,3.4195,3.4218,3.4231,3.4243,3.4217,3.4319,3.4329,3.4338,3.4369,3.4382,3.423,3.423,3.4229,3.4229,0,3.4003,3.4043,3.408,3.411,3.4132,3.4179,3.4174,3.4197,3.4186,3.4186,3.424,3.4251,3.4282,3.4296,3.4285,3.436,3.4346,3.4321,3.4279,3.4355,3.4385,3.4397,3.4235,3.4234,3.4233,3.4232,0,0,3.4126,3.4149,3.4163,3.4176,3.4196,3.4226,3.427,3.4302,3.4322,3.4342,3.4379,3.4425,3.4402,3.4418,3.4408,3.444,3.4514,3.4411,3.4411,3.4429,3.4596,3.4615,3.463,3.45,3.4502,3.4504,3.4595,0,3.4216,3.4295,3.4287,3.4361,3.4397,3.437,3.4409,3.4425,3.4426,3.4456,3.4457,3.449,3.4457,3.4467,3.4497,3.4499,3.4547,3.4492,3.4533,3.4535,3.453,3.4645,3.4665,3.475,3.4606,3.4608,3.461,0,3.4333,3.4359,3.4437,3.4452,3.4466,3.4502,3.4529,3.4558,3.4575,3.4574,3.4592,3.4577,3.462,3.4577,3.4636,3.4599,3.4615,3.4618,3.4621,3.4625,3.4577,3.4652,3.4777,3.479,3.4628,3.4626,3.4625,0,3.4414,3.4468,3.4522,3.4534,3.4553,3.4578,3.4586,3.4601,3.4621,3.4644,3.4656,3.4684,3.4699,3.4721,3.4713,3.4682,3.4774,3.473,3.4773,3.4773,3.4793,3.4792,3.4924,3.4804,3.4804,3.4804,3.4803,0,3.4516,3.4565,3.4559,3.4592,3.4646,3.4635,3.4688,3.4693,3.4706,3.4739,3.4717,3.4748,3.4736,3.4766,3.4759,3.4809,3.4816,3.4816,3.4813,3.4818,3.4818,3.4828,3.4822,3.4807,3.4806,3.4806,3.4805,0,3.4616,3.4614,3.4671,3.4684,3.4688,3.4728,3.4738,3.4769,3.4768,3.481,3.4819,3.4818,3.4852,3.4847,3.4884,3.488,3.4942,3.4932,3.4937,3.4934,3.4978,3.4974,3.512,3.5138,3.5007,3.5008,3.5009,0,3.4681,3.4718,3.4736,3.4757,3.4768,3.4802,3.4821,3.4811,3.4832,3.4855,3.4882,3.4915,3.494,3.4995,3.4997,3.5026,3.5016,3.5066,3.502,3.5024,3.5017,3.5015,3.5018,3.5075,3.5076,3.5077,3.5078,0,3.4797,3.4794,3.4824,3.4854,3.4878,3.4901,3.4921,3.4939,3.493,3.4955,3.499,3.501,3.5048,3.508,3.5107,3.5114,3.5095,3.5093,3.5104,3.5109,3.511,3.511,3.4961,3.5089,3.5088,3.5087,3.5087,3.5086,3.4882,3.4913,3.4931,3.4965,3.4979,3.4998,3.5028,3.5031,3.5061,3.5092,3.5084,3.5124,3.5139,3.5172,3.5183,3.5213,3.5194,3.5211,3.5215,3.522,3.5225,3.5105,3.5218,3.5217,3.5217,3.5217,3.5216,0,3.4996,3.5006,3.5038,3.5067,3.5093,3.5074,3.5095,3.5118,3.5154,3.517,3.5196,3.5236,3.5266,3.5271,3.53,3.5323,3.5315,3.5331,3.5329,3.5331,3.524,3.5227,3.5337,3.5337,3.5337,3.5337,3.5337,3.5337,3.5059,3.5112,3.5111,3.517,3.5179,3.5219,3.5233,3.525,3.5263,3.5309,3.5335,3.5338,3.535,3.5379,3.5406,3.5407,3.5418,3.5438,3.5435,3.5349,3.5337,3.5326,3.5314,3.544,3.5441,3.5523,3.5524,3.5525]}]]